Location: Isles
(48.9125°N, 2.8272°E)
Time: 10:59:07
(UTC+00:00)

COSMOS 2428 - Pass Details

Date: 03 February 2023
Orbit: 843 x 858 km, 70.9° (Epoch: 29 March)

Event Time Altitude Azimuth Distance (km) Brightness Sun altitude
Rises 18:27:37 0° 162° (SSE) 3,390 5.7 -16.4°
Reaches altitude 10° 18:30:39 10° 146° (SE) 2,459 4.8 -16.9°
Enters shadow 18:32:24 16° 130° (SE) 2,062 4.3 -17.2°
